Content
SEND FEEDBACK

Daily
Averages
Monthly
Summary
United States of America

BROOKLINE, MASSACHUSETTS


Home > North America > United States > Massachusetts
Elevation: 118 feet     Latitude: 42 24N     Longitude: 071 06W

WEATHER
 
SELECT A DAY
Number of Records: 202,348;   Date Range: 1/1/95 - 7/7/14
 
SHARE

PRINT THIS DATA

[ ← Previous Day ]
WEATHER ALMANAC - FEBRUARY 6, 2013
[ Next Day → ]
[ °C ]   °F
Weather ElementAverageHighLow
Temperature30.3 °F37.9 °F (12:54 pm)26.1 °F (2:54 am)
Dewpoint19.4 °F25 °F (8:54 am)3 °F (11:54 pm)
Humidity68.1 %93 % (1:18 am)35 % (9:54 pm)
Barometer30.03 in30.29 in (11:54 pm)29.93 in (3:11 am)
Wind Speed8.6 mph23 mph (3:54 pm)
Wind Gust29.9 mph (3:54 pm)
Weather ElementAverage
Visibility7.1 mi
Wind DirectionWSW (258 °)

Weather ElementTotal
Precipitation0.01 in
Heating Degree Days33 (Base 65)
Averaged from 30 records on February 6, 2013
WEATHER CONDITIONS BREAKOUT
WIND DIRECTION BREAKOUT
WEATHER BY HOUR - FEBRUARY 6, 2013
[ °C ]   °F
Local TimeTemperatureDewpointHumidityBarometerVisibilityWind DirectionWind SpeedGust SpeedPrecipitationEventsConditions
1:04 AM28.4 °F24.8 °F86 %29.94 in2.5 miNW (310°)5.8 mph0.00 inSnowLight Snow
1:18 AM26.6 °F24.8 °F93 %29.94 in1.8 miWNW (300°)6.9 mph0.00 inSnowLight Snow
1:54 AM27.0 °F24.1 °F89 %29.94 in2.0 miNNW (340°)4.6 mph0.01 inSnowLight Snow
2:20 AM26.6 °F24.8 °F93 %29.95 in2.0 miNW (310°)5.8 mph0.00 inSnowLight Snow
2:38 AM26.6 °F24.8 °F93 %29.95 in1.5 miNW (320°)8.1 mph0.00 inSnowLight Snow
2:54 AM26.1 °F23.0 °F88 %29.94 in2.0 miNNW (330°)4.6 mph0.00 inSnowLight Snow
3:11 AM26.6 °F24.8 °F93 %29.93 in2.0 miNW (320°)4.6 mph0.00 inSnowLight Snow
3:54 AM26.1 °F23.0 °F88 %29.93 in4.0 miNNW (340°)3.5 mph0.00 inSnowLight Snow
4:21 AM26.6 °F24.8 °F93 %29.93 in5.0 miCalm0.00 inOvercast
4:39 AM26.6 °F24.8 °F93 %29.94 in6.0 miCalm0.00 inOvercast
4:54 AM26.1 °F24.1 °F92 %29.94 in7.0 miCalm0.00 inOvercast
5:54 AM27.0 °F24.1 °F89 %29.96 in7.0 miNW (310°)4.6 mphOvercast
6:54 AM27.0 °F23.0 °F85 %29.98 in7.0 miNW (310°)4.6 mphOvercast
7:54 AM27.0 °F23.0 °F85 %29.99 in6.0 miWNW (290°)5.8 mphMostly Cloudy
8:54 AM30.0 °F25.0 °F82 %30.00 in7.0 miNW (310°)3.5 mphMostly Cloudy
9:54 AM32.0 °F25.0 °F75 %30.01 in10.0 miWest (270°)6.9 mphMostly Cloudy
10:54 AM34.0 °F24.1 °F67 %30.00 in10.0 miWNW (290°)8.1 mphScattered Clouds
11:54 AM36.0 °F21.9 °F57 %29.99 in10.0 miVariable6.9 mphScattered Clouds
12:54 PM37.9 °F21.0 °F51 %29.98 in10.0 miWest (280°)13.8 mphScattered Clouds
1:54 PM37.0 °F18.0 °F46 %30.00 in9.0 miWest (280°)12.7 mph26.5 mph0.00 inSnowLight Snow
2:54 PM37.0 °F18.0 °F46 %30.02 in10.0 miWest (270°)19.6 mph28.8 mph0.00 inMostly Cloudy
3:54 PM36.0 °F17.1 °F46 %30.03 in10.0 miWest (270°)23.0 mph29.9 mphScattered Clouds
4:54 PM36.0 °F15.1 °F43 %30.06 in10.0 miWNW (290°)13.8 mphPartly Cloudy
5:54 PM35.1 °F15.1 °F44 %30.10 in10.0 miWNW (290°)12.7 mph17.3 mphPartly Cloudy
6:54 PM35.1 °F14.0 °F42 %30.14 in10.0 miWest (280°)13.8 mph19.6 mphClear
7:54 PM32.0 °F10.0 °F40 %30.18 in10.0 miWNW (290°)15.0 mph23.0 mphClear
8:54 PM30.9 °F7.0 °F37 %30.21 in10.0 miWNW (290°)15.0 mph19.6 mphClear
9:54 PM30.0 °F5.0 °F35 %30.24 in10.0 miWest (280°)12.7 mph19.6 mphClear
10:54 PM28.9 °F5.0 °F36 %30.28 in10.0 miWNW (290°)11.5 mphClear
11:54 PM27.0 °F3.0 °F36 %30.29 in10.0 miWest (280°)10.4 mphClear
Hourly data recorded from KBOS, located miles away from Brookline, Massachusetts







STORIES FROM OUR PARTNERS